Regional Weather Roundup
Issued by NWS Huntsville, AL

Home | Current Version | Previous Version | Text Only | Print | Product List | Glossary On
Versions: 1 2 3 4 5 6 7 8 9 10 11 12 13 14 15 16 17 18 19 20 21 22 23 24 25 26 27 28 29 30 31 32 33 34 35 36 37 38 39 40 41 42 43 44 45 46 47
000
ASUS44 KHUN 270010
RWRHUN

WEATHER ROUNDUP FOR THE TENNESSEE VALLEY
NATIONAL WEATHER SERVICE HUNTSVILLE AL
600 PM CST FRI DEC 26 2014

ALZ001>004-270100-
NORTHWEST ALABAMA

CITY           SKY/WX    TMP DP  RH WIND       PRES   REMARKS
COURTLAND HCN    N/A     48 N/A N/A S6          N/A
RUSSELLVILLE     N/A     48 N/A N/A MISG        N/A
SHOALS AIRPORT CLOUDY    50  39  66 SE8       30.24F
6HR MIN TEMP:  48; 6HR MAX TEMP:  53;

SHOALS TVA RES   N/A     48 N/A N/A MISG        N/A
$$

ALZ005>007-016-270100-
NORTH CENTRAL ALABAMA

CITY           SKY/WX    TMP DP  RH WIND       PRES   REMARKS
CULLMAN AG STN   N/A     46 N/A N/A CALM        N/A
DECATUR AP     CLOUDY    47  42  83 E3        30.26S
6HR MIN TEMP:  47; 6HR MAX TEMP:  54;

HUNTSVILLE AP  CLOUDY    49  43  80 SE3       30.25S
6HR MIN TEMP:  48; 6HR MAX TEMP:  54; 6HR PCP: TRACE;

HUN NWS/UAH      N/A     47  40  76 E1          N/A
MERIDIANVILLE  CLOUDY    45  36  70 CALM      30.26R
REDSTONE ARSN  CLOUDY    45  41  87 E6        30.24S
VINEMONT AP    FAIR      46  40  78 SE3       30.28S
$$

ALZ008>010-270100-
NORTHEAST ALABAMA

CITY           SKY/WX    TMP DP  RH WIND       PRES   REMARKS
ALBERTVILLE    PTCLDY    45  41  87 CALM      30.24R
FORT PAYNE     PTCLDY    43  36  75 NE3       30.25F
SCOTTSBORO AP  PTCLDY    43  41  93 CALM      30.27R
VALLEY HEAD      N/A     43 N/A N/A MISG        N/A
$$

TNZ076-096-097-270100-
SOUTHEASTERN MIDDLE TENNESSEE

CITY           SKY/WX    TMP DP  RH WIND       PRES   REMARKS
TULLAHOMA      CLEAR     45  36  70 CALM      30.25S
WINCHESTER     CLEAR     45  37  76 CALM      30.25R
$$

...SURROUNDING SITES...

CITY           SKY/WX    TMP DP  RH WIND       PRES   REMARKS
ATLANTA        PTCLDY    51  33  50 CALM      30.28R
ANNISTON       PTCLDY    46  39  76 E5        30.28R
BIRMINGHAM     MOCLDY    49  38  65 CALM      30.27R
CHATTANOOGA    MOCLDY    45  38  76 NW3       30.28R
CORINTH        FAIR      46  41  81 E3        30.18F
DALTON         MOCLDY    43  39  87 CALM      30.28R
GADSDEN        CLEAR     43  36  75 CALM      30.26F
GOLDEN TRNGL   MOCLDY    54  43  66 SE9       30.21S
HALEYVILLE     FAIR      46  41  83 CALM      30.26F
JACKSON TN     MOCLDY    50  37  61 VRB6      30.15R
LEWISBURG      MOCLDY    43  40  89 CALM      30.24S
MEMPHIS        MOCLDY    51  41  68 SE9       30.14R
MURFREESBORO   FAIR      47  40  76 CALM      30.24S
NASHVILLE      CLOUDY    47  38  71 S9        30.23F
OXFORD MS      FAIR      48  41  76 SE6       30.18R
ROME           MOCLDY    46  40  79 CALM      30.28R
SAVANNAH       CLEAR     46  39  76 CALM      30.20S
TUPELO         MOCLDY    50  40  68 MISG      30.19F
TUSCALOOSA     MOCLDY    53  42  66 E5        30.26R
$$

...GULF COAST WEATHER...

CITY           SKY/WX    TMP DP  RH WIND       PRES   REMARKS
GULFPORT       CLOUDY    61  54  77 E16       30.19R
PASCAGOULA     CLOUDY    61  53  75 E6        30.21R
MOBILE         PTCLDY    58  51  78 E9        30.22R
GULF SHORES    PTCLDY    57  53  85 E7        30.23R
PENSACOLA      MOCLDY    59  52  77 E8        30.24R
DESTIN         CLEAR     55  49  80 CALM      30.25R
PANAMA CITY    CLEAR     55  52  92 E5        30.25S
APPALACHICOLA  CLEAR     53  47  79 E3        30.24S
$$



USA.gov is the U.S. government's official web portal to all federal, state and local government web resources and services.